TimeMDT,TemperatureF,Dew PointF,Humidity,Sea Level PressureIn,VisibilityMPH,Wind Direction,Wind SpeedMPH,Gust SpeedMPH,PrecipitationIn,Events,Conditions,WindDirDegrees,DateUTC
12:53 AM,64.0,45.0,50,29.88,10.0,NW,5.8,-,N/A,,Clear,310,2013-08-02 06:53:00
1:53 AM,62.1,45.0,53,29.89,10.0,NW,4.6,-,N/A,,Clear,320,2013-08-02 07:53:00
2:53 AM,59.0,45.0,60,29.91,10.0,West,3.5,-,N/A,,Clear,260,2013-08-02 08:53:00
3:53 AM,57.0,46.9,69,29.92,10.0,NNW,4.6,-,N/A,,Clear,330,2013-08-02 09:53:00
4:53 AM,55.0,45.0,69,29.94,10.0,SSE,5.8,-,N/A,,Clear,150,2013-08-02 10:53:00
5:53 AM,54.0,45.0,72,29.95,9.0,Calm,Calm,-,N/A,,Clear,0,2013-08-02 11:53:00
6:53 AM,55.0,46.9,74,29.97,10.0,Calm,Calm,-,N/A,,Clear,0,2013-08-02 12:53:00
7:53 AM,59.0,46.9,64,30.00,10.0,Calm,Calm,-,N/A,,Clear,0,2013-08-02 13:53:00
8:53 AM,62.1,46.9,58,30.01,10.0,Calm,Calm,-,N/A,,Clear,0,2013-08-02 14:53:00
9:53 AM,64.9,48.0,54,30.02,10.0,West,5.8,-,N/A,,Clear,270,2013-08-02 15:53:00
10:53 AM,68.0,48.0,49,30.01,10.0,Calm,Calm,-,N/A,,Clear,0,2013-08-02 16:53:00
11:53 AM,71.1,46.9,42,30.00,10.0,Variable,4.6,-,N/A,,Clear,0,2013-08-02 17:53:00
12:53 PM,77.0,44.1,31,29.99,10.0,West,8.1,-,N/A,,Clear,270,2013-08-02 18:53:00
1:53 PM,77.0,39.9,26,29.97,10.0,Variable,3.5,-,N/A,,Clear,0,2013-08-02 19:53:00
2:53 PM,80.1,39.0,23,29.96,10.0,WNW,10.4,-,N/A,,Clear,300,2013-08-02 20:53:00
3:53 PM,80.1,37.0,21,29.95,10.0,Variable,6.9,-,N/A,,Clear,0,2013-08-02 21:53:00
4:53 PM,82.0,36.0,19,29.93,10.0,WNW,8.1,19.6,N/A,,Clear,300,2013-08-02 22:53:00
5:53 PM,82.9,33.1,17,29.91,10.0,NNW,16.1,-,N/A,,Clear,330,2013-08-02 23:53:00
6:53 PM,82.0,34.0,18,29.90,10.0,North,10.4,-,N/A,,Clear,350,2013-08-03 00:53:00
7:53 PM,81.0,33.1,18,29.89,10.0,NNW,16.1,-,N/A,,Clear,340,2013-08-03 01:53:00
8:53 PM,78.1,30.9,18,29.90,10.0,NNW,4.6,-,N/A,,Clear,330,2013-08-03 02:53:00
9:53 PM,75.0,30.0,19,29.90,10.0,NNW,3.5,-,N/A,,Clear,340,2013-08-03 03:53:00
10:53 PM,71.1,28.9,21,29.91,10.0,WSW,3.5,-,N/A,,Clear,240,2013-08-03 04:53:00
11:53 PM,68.0,37.0,32,29.92,10.0,West,5.8,-,N/A,,Clear,260,2013-08-03 05:53:00